Location: *
(10.5081°N, 66.9194°W)
Time: 04:12:51
(UTC+00:00)

SL-4 R/B - Pass Details

Date: 30 March 2020
Orbit: 428 x 666 km, 51.6° (Epoch: 24 May)

Event Time Altitude Azimuth Distance (km) Brightness Sun altitude
Rises 23:05:24 0° 193° (SSW) 2,479 5.5 -7.4°
Reaches altitude 10° 23:07:56 10° 176° (S) 1,571 4.3 -8.1°
Maximum altitude 23:10:40 21° 125° (SE) 1,038 2.9 -8.7°
Enters shadow 23:12:59 12° 78° (ENE) 1,428 3.5 -9.3°
